This demonstration page uses our WeatherBlox Daily Observations layout. Learn more.

Left ArrowRight Arrow

Hourly Observations for May 27, 2019

Temp ( °F °C ) Dew Point ( °F °C ) Humidity (%) Winds ( mph kmh ) Pressure ( in mb ) Visibility ( mi km ) Precip ( " mm )
12:30 am 00:30 Cloudy with Light Rain 67 19.4 65 18.3 93 93 ENE 6 9 29.90 1012 10 16 0.03 0.76
12:52 am 00:52 Cloudy with Light Rain 68 20 65 18.3 90 90 Calm 29.91 1013 10 16 0.03 0.76
1:08 am 01:08 Cloudy with Light Rain 68 20 66 18.9 93 93 SSW 6 9 29.91 1013 10 16 0.00 0.03
1:52 am 01:52 Cloudy with Light Rain 67 19.4 65 18.3 93 93 ESE 12 19 29.79 1009 10 16 0.00 0.03
2:05 am 02:05 Cloudy 68 20 65 18.3 90 90 ESE 17 28 29.75 1008 10 16 0.00 0.03
2:52 am 02:52 Cloudy 68 20 63 17.2 84 84 SE 18 30 29.72 1006 10 16 0.00 0.03
3:41 am 03:41 Cloudy with Thunderstorms 70 21.1 64 17.8 82 82 ESE 21 33 29.69 1005 10 16 0.00 0.00
3:52 am 03:52 Cloudy with Thunderstorms 69 20.6 65 18.3 87 87 ESE 22 35 29.69 1005 10 16 0.00 0.00
4:02 am 04:02 Cloudy with Strong Thunderstorms 69 20.6 66 18.9 90 90 SE 18 30 29.69 1005 1 2 0.03 0.76
4:10 am 04:10 Cloudy with Strong Thunderstorms 68 20 66 18.9 93 93 SE 29 46 29.69 1006 1 1 0.35 8.89
4:14 am 04:14 Cloudy with Strong Thunderstorms 68 20 65 18.3 90 90 SSE 21 33 29.69 1006 1 2 0.52 13.21
4:35 am 04:35 Cloudy with Thunderstorms 68 20 66 18.9 93 93 SSE 25 41 29.68 1005 3 5 1.01 25.65
4:42 am 04:42 Windy with Storms Likely 69 20.6 65 18.3 87 87 SSE 22 35 29.67 1005 6 10 1.01 25.65
4:52 am 04:52 Windy with Storms Likely 70 21.1 65 18.3 84 84 SSE 21 33 29.66 1005 7 11 1.02 25.91
4:59 am 04:59 Cloudy with Light Rain 70 21.1 65 18.3 84 84 SSE 23 37 29.66 1004 7 11 0.00 0.03
5:52 am 05:52 Cloudy 68 20 63 17.2 84 84 SSE 17 28 29.63 1003 10 16 0.01 0.25
6:52 am 06:52 Cloudy 68 20 62 16.7 81 81 S 20 31 29.65 1004 10 16 0.00 0.00
7:19 am 07:19 Mostly Cloudy with Light Rain 67 19.4 61 16.1 81 81 S 20 31 29.65 1004 3 4 0.00 0.03
7:26 am 07:26 Cloudy with Haze 66 18.9 61 16.1 84 84 SSW 25 41 29.67 1005 3 5 0.00 0.03
7:52 am 07:52 Mostly Cloudy 66 18.9 61 16.1 84 84 S 24 39 29.66 1004 10 16 0.00 0.03
8:52 am 08:52 Cloudy 68 20 61 16.1 78 78 SSW 16 26 29.68 1005 10 16 0.00 0.00
9:35 am 09:35 Mostly Cloudy 70 21.1 62 16.7 76 76 WSW 13 20 29.67 1005 10 16 0.00 0.00
9:52 am 09:52 Mostly Cloudy 70 21.1 62 16.7 76 76 WSW 15 24 29.68 1005 10 16 0.00 0.00
10:52 am 10:52 Mostly Cloudy 74 23.3 62 16.7 67 67 SW 9 15 29.69 1005 10 16 0.00 0.00
11:52 am 11:52 Partly Cloudy 75 23.9 63 17.2 66 66 SW 9 15 29.70 1006 10 16 0.00 0.00
12:52 pm 12:52 Partly Cloudy 78 25.6 62 16.7 58 58 WSW 10 17 29.71 1006 10 16 0.00 0.00
1:52 pm 13:52 Partly Cloudy 78 25.6 62 16.7 58 58 WSW 7 11 29.70 1006 10 16 0.00 0.00
2:52 pm 14:52 Partly Cloudy 80 26.7 61 16.1 52 52 WSW 10 17 29.69 1006 10 16 0.00 0.00
3:52 pm 15:52 Partly Cloudy 78 25.6 64 17.8 62 62 NNW 13 20 29.68 1005 10 16 0.00 0.00
4:52 pm 16:52 Partly Cloudy 80 26.7 62 16.7 54 54 NNW 10 17 29.67 1005 10 16 0.00 0.00
5:52 pm 17:52 Mostly Cloudy 77 25 63 17.2 62 62 N 8 13 29.67 1005 10 16 0.00 0.00
6:52 pm 18:52 Mostly Cloudy 75 23.9 65 18.3 71 71 N 14 22 29.67 1005 10 16 0.00 0.00
7:52 pm 19:52 Partly Cloudy 72 22.2 63 17.2 73 73 N 15 24 29.68 1005 10 16 0.00 0.00
8:52 pm 20:52 Partly Cloudy 69 20.6 61 16.1 76 76 NNE 16 26 29.70 1006 10 16 0.00 0.00
9:52 pm 21:52 Partly Cloudy 66 18.9 59 15 78 78 N 22 35 29.72 1007 10 16 0.00 0.00
10:52 pm 22:52 Cloudy 64 17.8 57 13.9 78 78 N 18 30 29.76 1008 10 16 0.00 0.00
11:52 pm 23:52 Cloudy 63 17.2 56 13.3 78 78 NNE 14 22 29.73 1007 10 16 0.00 0.00

Powered by AerisWeather